Flag for China Weather past 2 weeks in Shenyang, Liaoning, China

Now
73 °F

Thunderstorms. Fog.


Feels Like: 70 °F
Forecast: 72 / 89 °F
Wind: 10 mph from South

Location: Shenyang / Taoxian

Current Time: Jul 29, 2015 at 2:33:46 AM

Latest Report: Jul 29, 2015 at 2:00 AM


Visibility: 3 mi

Pressure: 29.56 "Hg

Humidity: 94%

Dew point: 72 °F

Location of ShenyangLocation

Historic Weather in Shenyang — Graph

°F

Shenyang temperature yesterday

Maximum temperature yesterday: 86 °F (at 11:30 AM)
Minimum temperature yesterday: 72 °F (at 12:00 AM)
Average temperature yesterday: 78 °F

Past Weeks' High & Low Weather Summary

 TemperatureHumidityPressure
High95 °F (Jul 14, 2:30 PM)100% (Jul 27, 4:30 PM)29.86 "Hg (Jul 27, 4:30 PM)
Low64 °F (Jul 14, 3:30 AM)28% (Jul 14, 3:00 PM)29.50 "Hg (Jul 14, 1:00 AM)
Average79 °F67%29.69 "Hg
* Reported Jul 14 1:00 AM — Jul 29 1:00 AM, Shenyang, Weather by CustomWeather, © 2015

Note: Actual official high and low records may vary slightly from our data, if they occured in-between our weather recording intervals... More about our weather records

Advertising

Shenyang weather history for previous 24 hours

 ConditionsComfort  
Time TempWeatherWind HumidityBarometerVisibility
1:00 AM
Wed, Jul 29
73 °FThunderstorms. Fog.8 mph94%29.62 "Hg2 mi
12:30 AM73 °FThunderstorms. Fog.6 mph94%29.62 "Hg2 mi
12:00 AM75 °FThunderstorms. Fog.6 mph89%29.62 "Hg3 mi
11:30 PM
Tue, Jul 28
77 °FThunderstorms. Passing clouds.1 mph83%29.68 "Hg4 mi
11:00 PM77 °FOvercast.3 mph83%29.65 "Hg4 mi
10:30 PM75 °FOvercast.1 mph89%29.65 "Hg4 mi
10:00 PM75 °FOvercast.3 mph89%29.62 "Hg4 mi
9:30 PM75 °FOvercast.3 mph89%29.65 "HgN/A
9:00 PM75 °FSprinkles. Passing clouds.1 mph89%29.65 "Hg5 mi
8:30 PM75 °FSprinkles. Passing clouds.1 mph89%29.65 "Hg5 mi
8:00 PM75 °FSprinkles. Passing clouds.1 mph89%29.65 "HgN/A
7:30 PM77 °FOvercast.1 mph79%29.62 "HgN/A
7:00 PM77 °FOvercast.3 mph79%29.62 "HgN/A
6:30 PM77 °FOvercast.3 mph79%29.62 "HgN/A
6:00 PM79 °FOvercast.3 mph74%29.62 "HgN/A
5:30 PM79 °FOvercast.6 mph74%29.62 "HgN/A
5:00 PM79 °FOvercast.10 mph74%29.65 "HgN/A
4:30 PM81 °FOvercast.6 mph74%29.65 "HgN/A
4:00 PM82 °FOvercast.8 mph70%29.65 "HgN/A
3:30 PM82 °FOvercast.13 mph70%29.65 "HgN/A
3:00 PM84 °FOvercast.10 mph66%29.65 "HgN/A
2:30 PM86 °FPartly sunny.8 mph66%29.62 "HgN/A
2:00 PM86 °FPartly sunny.10 mph66%29.65 "HgN/A
1:30 PM84 °FPartly sunny.6 mph70%29.62 "HgN/A
1:00 PM86 °FPartly sunny.8 mph66%29.62 "HgN/A
12:30 PM86 °FOvercast.6 mph66%29.65 "HgN/A
11:30 AM86 °FPassing clouds.8 mph66%29.65 "HgN/A
11:00 AM84 °FPassing clouds.8 mph66%29.65 "HgN/A
10:30 AM82 °FPartly sunny.8 mph70%29.65 "HgN/A
10:00 AM82 °FPartly sunny.6 mph70%29.65 "HgN/A
9:30 AM81 °FOvercast.3 mph79%29.65 "Hg4 mi
9:00 AM79 °FFog.3 mph84%29.65 "Hg3 mi
8:30 AM79 °FFog.3 mph84%29.65 "Hg2 mi
8:00 AM77 °FFog.1 mph89%29.65 "Hg2 mi
7:30 AM75 °FLight rain. Fog.3 mph94%29.65 "Hg2 mi
7:00 AM75 °FFog.6 mph89%29.65 "Hg1 mi
6:30 AM75 °FSprinkles. Fog.6 mph89%29.65 "Hg1 mi
6:00 AM75 °FFog.1 mph89%29.65 "Hg2 mi
5:30 AM73 °FFog.1 mph94%29.65 "Hg2 mi
5:00 AM73 °FLight rain. Fog.1 mph94%29.65 "Hg2 mi
4:30 AM73 °FFog.1 mph94%29.65 "Hg2 mi
4:00 AM73 °FFog.1 mph94%29.68 "Hg3 mi
3:30 AM73 °FPassing clouds.1 mph89%29.65 "Hg4 mi
3:00 AM73 °FPassing clouds.1 mph89%29.65 "Hg4 mi
2:30 AM75 °FPassing clouds.3 mph83%29.65 "Hg4 mi
2:00 AM73 °FPassing clouds.1 mph89%29.65 "Hg4 mi
Weather by CustomWeather, © 2015

See weather overviewHow to use our weather pages